Time,TemperatureF,DewpointF,PressureIn,WindDirection,WindDirectionDegrees,WindSpeedMPH,WindSpeedGustMPH,Humidity,HourlyPrecipIn,Conditions,Clouds,dailyrainin,SoftwareType,DateUTC
2013-02-25 00:01:00,35.0,33.0,30.26,NW,307,1.0,4.0,92,0.00,,,0.00,,2013-02-25 05:01:00,
2013-02-25 00:11:00,35.0,33.0,30.26,NW,307,1.0,4.0,92,0.00,,,0.00,,2013-02-25 05:11:00,
2013-02-25 00:22:00,35.0,33.0,30.26,North,0,0.0,3.0,92,0.00,,,0.00,,2013-02-25 05:22:00,
2013-02-25 00:31:00,35.0,33.0,30.26,NW,320,1.0,5.0,92,0.00,,,0.00,,2013-02-25 05:31:00,
2013-02-25 00:41:00,35.0,33.0,30.26,NW,320,1.0,5.0,92,0.00,,,0.00,,2013-02-25 05:41:00,
2013-02-25 00:52:00,35.0,33.0,30.26,NW,320,1.0,5.0,92,0.00,,,0.00,,2013-02-25 05:52:00,
2013-02-25 01:02:00,35.0,33.0,30.27,WNW,300,1.0,5.0,92,0.00,,,0.00,,2013-02-25 06:02:00,
2013-02-25 01:11:00,35.0,33.0,30.27,WNW,300,1.0,5.0,92,0.00,,,0.00,,2013-02-25 06:11:00,
2013-02-25 01:21:00,35.0,33.0,30.27,North,11,1.0,6.0,91,0.00,,,0.00,,2013-02-25 06:21:00,
2013-02-25 01:31:00,35.0,33.0,30.27,North,11,1.0,6.0,91,0.00,,,0.00,,2013-02-25 06:31:00,
2013-02-25 01:41:00,35.0,33.0,30.27,North,11,1.0,6.0,91,0.00,,,0.00,,2013-02-25 06:41:00,
2013-02-25 01:52:00,35.0,33.0,30.28,North,0,0.0,3.0,91,0.00,,,0.00,,2013-02-25 06:52:00,
2013-02-25 02:01:00,35.0,33.0,30.29,North,0,0.0,4.0,91,0.00,,,0.00,,2013-02-25 07:01:00,
2013-02-25 02:11:00,35.0,32.0,30.29,NW,310,1.0,6.0,90,0.00,,,0.00,,2013-02-25 07:11:00,
2013-02-25 02:21:00,35.0,32.0,30.29,NW,310,1.0,6.0,90,0.00,,,0.00,,2013-02-25 07:21:00,
2013-02-25 02:31:00,35.0,32.0,30.29,NW,310,1.0,6.0,90,0.00,,,0.00,,2013-02-25 07:31:00,
2013-02-25 02:41:00,35.0,32.0,30.29,NW,310,1.0,6.0,90,0.00,,,0.00,,2013-02-25 07:41:00,
2013-02-25 02:52:00,35.0,33.0,30.30,North,0,0.0,6.0,91,0.00,,,0.00,,2013-02-25 07:52:00,
2013-02-25 03:01:00,36.0,34.0,30.31,North,0,0.0,3.0,91,0.00,,,0.00,,2013-02-25 08:01:00,
2013-02-25 03:11:00,36.0,34.0,30.31,North,0,0.0,3.0,91,0.00,,,0.00,,2013-02-25 08:11:00,
2013-02-25 03:21:00,36.0,34.0,30.31,North,0,0.0,3.0,91,0.00,,,0.00,,2013-02-25 08:21:00,
2013-02-25 03:31:00,36.0,33.0,30.32,WNW,291,1.0,5.0,90,0.00,,,0.00,,2013-02-25 08:31:00,
2013-02-25 03:41:00,36.0,33.0,30.32,WNW,291,1.0,5.0,90,0.00,,,0.00,,2013-02-25 08:41:00,
2013-02-25 03:52:00,36.0,33.0,30.32,NNW,340,1.0,4.0,90,0.00,,,0.00,,2013-02-25 08:52:00,
2013-02-25 04:01:00,36.0,33.0,30.32,WNW,299,1.0,4.0,90,0.00,,,0.00,,2013-02-25 09:01:00,
2013-02-25 04:12:00,36.0,33.0,30.32,WNW,299,1.0,4.0,90,0.00,,,0.00,,2013-02-25 09:12:00,
2013-02-25 04:21:00,36.0,33.0,30.32,WNW,299,1.0,4.0,90,0.00,,,0.00,,2013-02-25 09:21:00,
2013-02-25 04:31:00,36.0,33.0,30.33,NNW,345,1.0,7.0,90,0.00,,,0.00,,2013-02-25 09:31:00,
2013-02-25 04:41:00,36.0,33.0,30.33,NNW,345,1.0,7.0,90,0.00,,,0.00,,2013-02-25 09:41:00,
2013-02-25 04:52:00,37.0,34.0,30.32,WSW,255,1.0,4.0,90,0.00,,,0.00,,2013-02-25 09:52:00,
2013-02-25 05:01:00,37.0,34.0,30.32,WSW,255,1.0,4.0,90,0.00,,,0.00,,2013-02-25 10:01:00,
2013-02-25 05:11:00,37.0,34.0,30.33,NW,312,1.0,7.0,88,0.00,,,0.00,,2013-02-25 10:11:00,
2013-02-25 05:21:00,37.0,34.0,30.33,NW,312,1.0,7.0,88,0.00,,,0.00,,2013-02-25 10:21:00,
2013-02-25 05:31:00,37.0,34.0,30.33,WNW,297,1.0,4.0,89,0.00,,,0.00,,2013-02-25 10:31:00,
2013-02-25 05:41:00,37.0,34.0,30.33,WNW,297,1.0,4.0,89,0.00,,,0.00,,2013-02-25 10:41:00,
2013-02-25 05:52:00,38.0,35.0,30.34,WNW,286,1.0,6.0,89,0.00,,,0.00,,2013-02-25 10:52:00,
2013-02-25 06:01:00,38.0,35.0,30.34,WNW,286,1.0,6.0,89,0.00,,,0.00,,2013-02-25 11:01:00,
2013-02-25 06:11:00,38.0,35.0,30.34,WNW,286,1.0,6.0,89,0.00,,,0.00,,2013-02-25 11:11:00,
2013-02-25 06:21:00,38.0,35.0,30.34,SSW,207,1.0,6.0,88,0.00,,,0.00,,2013-02-25 11:21:00,
2013-02-25 06:31:00,38.0,34.0,30.34,WNW,289,1.0,7.0,87,0.00,,,0.00,,2013-02-25 11:31:00,
2013-02-25 06:42:00,38.0,34.0,30.34,WNW,289,1.0,7.0,87,0.00,,,0.00,,2013-02-25 11:42:00,
2013-02-25 06:52:00,38.0,34.0,30.34,WNW,289,1.0,7.0,87,0.00,,,0.00,,2013-02-25 11:52:00,
2013-02-25 07:01:00,38.0,34.0,30.34,ESE,114,2.0,8.0,85,0.00,,,0.00,,2013-02-25 12:01:00,
2013-02-25 07:11:00,38.0,34.0,30.34,ESE,114,2.0,8.0,85,0.00,,,0.00,,2013-02-25 12:11:00,
2013-02-25 07:21:00,38.0,34.0,30.34,WNW,302,1.0,9.0,84,0.00,,,0.00,,2013-02-25 12:21:00,
2013-02-25 07:32:00,38.0,34.0,30.34,WNW,302,1.0,9.0,84,0.00,,,0.00,,2013-02-25 12:32:00,
2013-02-25 07:40:00,38.0,34.0,30.33,East,101,1.0,5.0,86,0.00,,,0.00,,2013-02-25 12:40:00,
2013-02-25 07:42:00,38.0,34.0,30.34,WNW,302,1.0,9.0,84,0.00,,,0.00,,2013-02-25 12:42:00,
2013-02-25 07:53:00,38.0,34.0,30.34,WNW,302,1.0,9.0,84,0.00,,,0.00,,2013-02-25 12:53:00,
2013-02-25 08:02:00,38.0,34.0,30.33,East,101,1.0,5.0,86,0.00,,,0.00,,2013-02-25 13:02:00,
2013-02-25 08:12:00,38.0,34.0,30.33,East,101,1.0,5.0,86,0.00,,,0.00,,2013-02-25 13:12:00,
2013-02-25 08:22:00,38.0,34.0,30.33,East,101,1.0,5.0,86,0.00,,,0.00,,2013-02-25 13:22:00,
2013-02-25 08:31:00,38.0,34.0,30.33,East,101,1.0,5.0,86,0.00,,,0.00,,2013-02-25 13:31:00,
2013-02-25 08:52:00,38.0,34.0,30.32,East,89,2.0,7.0,87,0.00,,,0.00,,2013-02-25 13:52:00,
2013-02-25 09:02:00,39.0,35.0,30.32,NNW,336,2.0,6.0,85,0.00,,,0.00,,2013-02-25 14:02:00,
2013-02-25 09:21:00,39.0,35.0,30.32,NW,314,2.0,8.0,85,0.00,,,0.00,,2013-02-25 14:21:00,
2013-02-25 09:31:00,39.0,35.0,30.32,NW,314,2.0,8.0,85,0.00,,,0.00,,2013-02-25 14:31:00,
2013-02-25 09:41:00,39.0,35.0,30.32,NW,314,2.0,8.0,85,0.00,,,0.00,,2013-02-25 14:41:00,
2013-02-25 09:52:00,39.0,35.0,30.32,East,98,3.0,9.0,86,0.00,,,0.00,,2013-02-25 14:52:00,
2013-02-25 10:02:00,39.0,35.0,30.32,East,93,2.0,8.0,86,0.00,,,0.00,,2013-02-25 15:02:00,
2013-02-25 10:11:00,39.0,35.0,30.32,East,93,2.0,8.0,86,0.00,,,0.00,,2013-02-25 15:11:00,
2013-02-25 10:21:00,39.0,35.0,30.32,East,93,2.0,8.0,86,0.00,,,0.00,,2013-02-25 15:21:00,
2013-02-25 10:32:00,39.0,35.0,30.32,SW,217,1.0,5.0,85,0.00,,,0.00,,2013-02-25 15:32:00,
2013-02-25 10:41:00,39.0,35.0,30.32,SW,217,1.0,5.0,85,0.00,,,0.00,,2013-02-25 15:41:00,
2013-02-25 10:52:00,39.0,35.0,30.33,South,178,2.0,8.0,85,0.00,,,0.00,,2013-02-25 15:52:00,
2013-02-25 11:01:00,39.0,35.0,30.32,ESE,120,2.0,8.0,85,0.00,,,0.00,,2013-02-25 16:01:00,
2013-02-25 11:11:00,39.0,35.0,30.32,ESE,120,2.0,8.0,85,0.00,,,0.00,,2013-02-25 16:11:00,
2013-02-25 11:21:00,39.0,35.0,30.32,ESE,120,2.0,8.0,85,0.00,,,0.00,,2013-02-25 16:21:00,
2013-02-25 11:31:00,39.0,35.0,30.33,NNW,335,2.0,10.0,84,0.00,,,0.00,,2013-02-25 16:31:00,
2013-02-25 11:41:00,39.0,35.0,30.33,NNW,335,2.0,10.0,84,0.00,,,0.00,,2013-02-25 16:41:00,
2013-02-25 11:52:00,39.0,35.0,30.32,ESE,120,2.0,12.0,85,0.00,,,0.00,,2013-02-25 16:52:00,
2013-02-25 12:01:00,39.0,35.0,30.32,ESE,120,2.0,12.0,85,0.00,,,0.00,,2013-02-25 17:01:00,
2013-02-25 12:11:00,39.0,35.0,30.32,ESE,120,2.0,12.0,85,0.00,,,0.00,,2013-02-25 17:11:00,
2013-02-25 12:21:00,39.0,35.0,30.33,SE,141,2.0,12.0,86,0.00,,,0.00,,2013-02-25 17:21:00,
2013-02-25 12:31:00,39.0,35.0,30.33,ESE,115,2.0,7.0,87,0.00,,,0.00,,2013-02-25 17:31:00,
2013-02-25 12:41:00,39.0,35.0,30.33,ESE,115,2.0,7.0,87,0.00,,,0.00,,2013-02-25 17:41:00,
2013-02-25 12:52:00,39.0,35.0,30.34,South,171,2.0,6.0,87,0.00,,,0.00,,2013-02-25 17:52:00,
2013-02-25 13:01:00,39.0,35.0,30.34,South,171,2.0,6.0,87,0.00,,,0.00,,2013-02-25 18:01:00,
2013-02-25 13:11:00,39.0,35.0,30.34,South,171,2.0,6.0,87,0.00,,,0.00,,2013-02-25 18:11:00,
2013-02-25 13:21:00,39.0,35.0,30.34,West,260,2.0,9.0,87,0.00,,,0.00,,2013-02-25 18:21:00,
2013-02-25 13:32:00,39.0,35.0,30.34,WNW,303,1.0,6.0,87,0.00,,,0.00,,2013-02-25 18:32:00,
2013-02-25 13:41:00,39.0,35.0,30.34,WNW,303,1.0,6.0,87,0.00,,,0.00,,2013-02-25 18:41:00,
2013-02-25 13:51:00,39.0,35.0,30.34,WNW,303,1.0,6.0,87,0.00,,,0.00,,2013-02-25 18:51:00,
2013-02-25 14:01:00,39.0,36.0,30.35,East,92,2.0,8.0,88,0.00,,,0.00,,2013-02-25 19:01:00,
2013-02-25 14:11:00,39.0,36.0,30.35,East,92,2.0,8.0,88,0.00,,,0.00,,2013-02-25 19:11:00,
2013-02-25 14:21:00,38.0,35.0,30.35,WSW,246,2.0,8.0,89,0.00,,,0.00,,2013-02-25 19:21:00,
2013-02-25 14:31:00,38.0,35.0,30.35,SE,141,2.0,8.0,89,0.00,,,0.00,,2013-02-25 19:31:00,
2013-02-25 14:41:00,38.0,35.0,30.35,SE,141,2.0,8.0,89,0.00,,,0.00,,2013-02-25 19:41:00,
2013-02-25 14:52:00,38.0,35.0,30.35,SE,141,2.0,8.0,89,0.00,,,0.00,,2013-02-25 19:52:00,
2013-02-25 15:01:00,38.0,36.0,30.35,WNW,287,2.0,9.0,91,0.00,,,0.00,,2013-02-25 20:01:00,
2013-02-25 15:11:00,38.0,36.0,30.35,WNW,287,2.0,9.0,91,0.00,,,0.00,,2013-02-25 20:11:00,
2013-02-25 15:21:00,38.0,36.0,30.36,SE,137,2.0,8.0,91,0.00,,,0.00,,2013-02-25 20:21:00,
2013-02-25 15:31:00,38.0,36.0,30.36,SE,137,2.0,8.0,91,0.00,,,0.00,,2013-02-25 20:31:00,
2013-02-25 15:41:00,38.0,36.0,30.36,SE,137,2.0,8.0,91,0.00,,,0.00,,2013-02-25 20:41:00,
2013-02-25 15:52:00,38.0,36.0,30.35,NW,304,2.0,7.0,91,0.00,,,0.00,,2013-02-25 20:52:00,
2013-02-25 16:01:00,38.0,36.0,30.36,ESE,102,1.0,7.0,91,0.00,,,0.00,,2013-02-25 21:01:00,
2013-02-25 16:11:00,38.0,36.0,30.36,ESE,102,1.0,7.0,91,0.00,,,0.00,,2013-02-25 21:11:00,
2013-02-25 16:21:00,38.0,35.0,30.36,East,94,3.0,15.0,90,0.00,,,0.00,,2013-02-25 21:21:00,
2013-02-25 16:31:00,38.0,35.0,30.36,East,94,3.0,15.0,90,0.00,,,0.00,,2013-02-25 21:31:00,
2013-02-25 16:41:00,38.0,35.0,30.36,East,94,3.0,15.0,90,0.00,,,0.00,,2013-02-25 21:41:00,
2013-02-25 16:52:00,38.0,35.0,30.37,East,84,2.0,8.0,90,0.00,,,0.00,,2013-02-25 21:52:00,
2013-02-25 17:01:00,38.0,36.0,30.36,ESE,118,2.0,9.0,91,0.00,,,0.00,,2013-02-25 22:01:00,
2013-02-25 17:11:00,38.0,36.0,30.36,ESE,118,2.0,9.0,91,0.00,,,0.00,,2013-02-25 22:11:00,
2013-02-25 17:21:00,38.0,36.0,30.36,ESE,118,2.0,9.0,91,0.00,,,0.00,,2013-02-25 22:21:00,
2013-02-25 17:31:00,38.0,36.0,30.36,East,85,4.0,14.0,91,0.00,,,0.00,,2013-02-25 22:31:00,
2013-02-25 17:41:00,38.0,36.0,30.36,East,85,4.0,14.0,91,0.00,,,0.00,,2013-02-25 22:41:00,
2013-02-25 17:52:00,37.0,35.0,30.37,ESE,106,2.0,9.0,91,0.00,,,0.00,,2013-02-25 22:52:00,
2013-02-25 18:01:00,37.0,35.0,30.37,ESE,106,2.0,9.0,91,0.00,,,0.00,,2013-02-25 23:01:00,
2013-02-25 18:11:00,37.0,35.0,30.37,ESE,106,2.0,9.0,91,0.00,,,0.00,,2013-02-25 23:11:00,
2013-02-25 18:22:00,37.0,35.0,30.37,ESE,106,2.0,9.0,91,0.00,,,0.00,,2013-02-25 23:22:00,
2013-02-25 18:32:00,37.0,35.0,30.37,ESE,116,2.0,11.0,91,0.00,,,0.00,,2013-02-25 23:32:00,
2013-02-25 18:42:00,37.0,35.0,30.37,ESE,116,2.0,11.0,91,0.00,,,0.00,,2013-02-25 23:42:00,
2013-02-25 18:52:00,37.0,34.0,30.37,East,80,4.0,14.0,90,0.00,,,0.00,,2013-02-25 23:52:00,
2013-02-25 19:01:00,37.0,34.0,30.37,East,80,4.0,14.0,90,0.00,,,0.00,,2013-02-26 00:01:00,
2013-02-25 19:11:00,37.0,34.0,30.37,East,80,4.0,14.0,90,0.00,,,0.00,,2013-02-26 00:11:00,
2013-02-25 19:21:00,37.0,35.0,30.37,ENE,77,3.0,10.0,91,0.00,,,0.00,,2013-02-26 00:21:00,
2013-02-25 19:32:00,37.0,35.0,30.37,ENE,77,3.0,10.0,91,0.00,,,0.00,,2013-02-26 00:32:00,
2013-02-25 19:41:00,37.0,35.0,30.37,ENE,77,3.0,10.0,91,0.00,,,0.00,,2013-02-26 00:41:00,
2013-02-25 19:51:00,36.0,34.0,30.38,East,94,2.0,10.0,92,0.00,,,0.00,,2013-02-26 00:51:00,
2013-02-25 20:02:00,36.0,34.0,30.38,East,94,2.0,10.0,92,0.00,,,0.00,,2013-02-26 01:02:00,
2013-02-25 20:11:00,36.0,34.0,30.38,East,94,2.0,10.0,92,0.00,,,0.00,,2013-02-26 01:11:00,
2013-02-25 20:21:00,36.0,34.0,30.37,ESE,113,1.0,6.0,93,0.00,,,0.00,,2013-02-26 01:21:00,
2013-02-25 20:31:00,36.0,34.0,30.38,North,0,0.0,6.0,94,0.01,,,0.01,,2013-02-26 01:31:00,
2013-02-25 20:41:00,36.0,34.0,30.38,North,0,0.0,6.0,94,0.01,,,0.01,,2013-02-26 01:41:00,
2013-02-25 20:51:00,36.0,34.0,30.38,North,0,0.0,6.0,94,0.01,,,0.01,,2013-02-26 01:51:00,
2013-02-25 21:01:00,36.0,34.0,30.38,East,94,1.0,7.0,94,0.02,,,0.02,,2013-02-26 02:01:00,
2013-02-25 21:11:00,36.0,34.0,30.38,East,94,1.0,7.0,94,0.02,,,0.02,,2013-02-26 02:11:00,
2013-02-25 21:21:00,36.0,35.0,30.38,North,0,0.0,2.0,95,0.02,,,0.02,,2013-02-26 02:21:00,
2013-02-25 21:32:00,36.0,35.0,30.37,North,0,0.0,6.0,95,0.01,,,0.02,,2013-02-26 02:32:00,
2013-02-25 21:41:00,36.0,35.0,30.37,North,0,0.0,6.0,95,0.01,,,0.02,,2013-02-26 02:41:00,
2013-02-25 21:52:00,36.0,35.0,30.37,North,0,0.0,6.0,95,0.01,,,0.02,,2013-02-26 02:52:00,
2013-02-25 22:01:00,36.0,35.0,30.37,East,100,1.0,9.0,95,0.00,,,0.02,,2013-02-26 03:01:00,
2013-02-25 22:11:00,36.0,35.0,30.37,East,100,1.0,9.0,95,0.00,,,0.02,,2013-02-26 03:11:00,
2013-02-25 22:21:00,36.0,34.0,30.37,East,93,2.0,10.0,94,0.00,,,0.02,,2013-02-26 03:21:00,
2013-02-25 22:31:00,36.0,34.0,30.37,East,93,2.0,10.0,94,0.00,,,0.02,,2013-02-26 03:31:00,
2013-02-25 22:41:00,36.0,34.0,30.37,East,93,2.0,10.0,94,0.00,,,0.02,,2013-02-26 03:41:00,
2013-02-25 22:52:00,36.0,35.0,30.37,ESE,114,2.0,7.0,95,0.00,,,0.02,,2013-02-26 03:52:00,
2013-02-25 23:01:00,36.0,35.0,30.37,ESE,107,2.0,8.0,95,0.00,,,0.02,,2013-02-26 04:01:00,
2013-02-25 23:11:00,36.0,35.0,30.37,ESE,107,2.0,8.0,95,0.00,,,0.02,,2013-02-26 04:11:00,
2013-02-25 23:21:00,36.0,35.0,30.37,ESE,107,2.0,8.0,95,0.00,,,0.02,,2013-02-26 04:21:00,
2013-02-25 23:31:00,36.0,35.0,30.37,ESE,107,2.0,8.0,95,0.00,,,0.02,,2013-02-26 04:31:00,
2013-02-25 23:42:00,36.0,35.0,30.37,ESE,107,2.0,8.0,95,0.00,,,0.02,,2013-02-26 04:42:00,
2013-02-25 23:52:00,36.0,35.0,30.37,SE,136,1.0,8.0,96,0.00,,,0.02,,2013-02-26 04:52:00,